Flag for Germany Weather past 2 weeks in Heilbronn, Baden-Württemberg, Germany

Now
46 °F

Overcast.


Feels Like: 42 °F
Forecast: 36 / 50 °F
Wind: 7 mph from West

Location: Oehringen

Current Time: Oct 23, 2014 at 1:07:39 AM

Latest Report: Oct 23, 2014 at 12:00 AM


Visibility: 13 mi

Pressure: 30.14 "Hg

Humidity: 88%

Dew point: 42 °F

Location of HeilbronnLocation

Historic Weather in Heilbronn — Graph

°F

Heilbronn temperature yesterday

Maximum temperature yesterday: 47 °F (at 2:00 AM)
Minimum temperature yesterday: 43 °F (at 10:00 AM)
Average temperature yesterday: 45 °F

Past Weeks' High & Low Weather Summary

 TemperatureHumidityPressure
High79 °F (Oct 9, 3:00 PM)99% (Oct 11, 8:00 AM)30.21 "Hg (Oct 11, 8:00 AM)
Low43 °F (Oct 22, 10:00 AM)38% (Oct 9, 3:00 PM)29.62 "Hg (Oct 21, 7:00 PM)
Average58 °F85%29.93 "Hg
* Reported Midnight between Oct 7 and Oct 8 — Midnight between Oct 22 and Oct 23, Heilbronn, Weather by CustomWeather, © 2014

Note: Actual official high and low records may vary slightly from our data, if they occured in-between our weather recording intervals... More about our weather records

Advertising

Heilbronn weather history for previous 24 hours

 ConditionsComfort  
Time TempWeatherWind HumidityBarometerVisibility
12:00 AM
Oct 23
46 °FOvercast.7 mph88%30.14 "Hg13 mi
11:00 PM
Oct 22
46 °FOvercast.7 mph88%30.12 "Hg14 mi
10:00 PM46 °FOvercast.7 mph86%30.10 "Hg19 mi
9:00 PM46 °FOvercast.9 mph88%30.06 "Hg19 mi
8:00 PM45 °FOvercast.8 mph89%30.06 "Hg17 mi
7:00 PM45 °FLight rain. Overcast.6 mph93%30.05 "Hg6 mi
6:00 PM45 °FLight freezing rain. Overcast.7 mph88%30.03 "Hg6 mi
5:00 PM44 °FDrizzle. Overcast.7 mph92%30.02 "Hg9 mi
4:00 PM44 °FLight freezing rain. Overcast.8 mph92%30.04 "Hg6 mi
3:00 PM44 °FLight rain. Overcast.8 mph91%30.05 "Hg4 mi
2:00 PM43 °FLight rain. Overcast.8 mph91%30.06 "Hg6 mi
1:00 PM43 °FLight rain. Overcast.10 mph91%30.06 "Hg5 mi
12:00 PM44 °FLight freezing rain. Overcast.9 mph86%30.05 "Hg9 mi
11:00 AM44 °FOvercast.7 mph87%30.04 "Hg13 mi
10:00 AM43 °FLight freezing rain. Overcast.8 mph88%30.05 "Hg9 mi
9:00 AM43 °FDrizzle. Overcast.8 mph83%30.01 "Hg11 mi
8:00 AM43 °FOvercast.7 mph88%29.99 "Hg15 mi
7:00 AM44 °FDrizzle. Overcast.8 mph80%29.96 "Hg19 mi
6:00 AM45 °FLight rain. Overcast.8 mph77%29.95 "Hg19 mi
5:00 AM45 °FOvercast.8 mph81%29.94 "Hg22 mi
4:00 AM46 °FOvercast.8 mph78%29.95 "Hg22 mi
3:00 AM46 °FOvercast.8 mph78%29.97 "Hg25 mi
2:00 AM47 °FOvercast.8 mph76%29.96 "Hg28 mi
1:00 AM46 °FOvercast.7 mph78%29.94 "Hg34 mi
Weather by CustomWeather, © 2014

See weather overviewHow to use our weather pages